Tillbaka till svenska Fidonet
English   Information   Debug  
FILM   0/18
FNEWS_PUBLISH   5090
FN_SYSOP   42250
FN_SYSOP_OLD1   71952
FTP_FIDO   0/2
FTSC_PUBLIC   0/13992
FUNNY   0/4886
GENEALOGY.EUR   0/71
GET_INFO   105
GOLDED   0/408
HAM   2952/16975
HOLYSMOKE   0/6791
HOT_SITES   0/1
HTMLEDIT   0/71
HUB203   466
HUB_100   264
HUB_400   39
HUMOR   0/29
IC   0/2851
INTERNET   0/424
INTERUSER   0/3
IP_CONNECT   719
JAMNNTPD   0/233
JAMTLAND   0/47
KATTY_KORNER   0/41
LAN   0/16
LINUX-USER   0/19
LINUXHELP   0/1155
LINUX   0/22471
LINUX_BBS   0/957
mail   18.68
mail_fore_ok   249
MENSA   0/341
MODERATOR   0/102
MONTE   0/992
MOSCOW_OKLAHOMA   0/1245
MUFFIN   0/783
MUSIC   0/321
N203_STAT   940
N203_SYSCHAT   313
NET203   321
NET204   69
NET_DEV   0/10
NORD.ADMIN   0/101
NORD.CHAT   0/2572
NORD.FIDONET   189
NORD.HARDWARE   0/28
NORD.KULTUR   0/114
NORD.PROG   0/32
NORD.SOFTWARE   0/88
NORD.TEKNIK   0/58
NORD   0/453
OCCULT_CHAT   0/93
OS2BBS   0/787
OS2DOSBBS   0/580
OS2HW   0/42
OS2INET   0/37
OS2LAN   0/134
OS2PROG   0/36
OS2REXX   0/113
OS2USER-L   207
OS2   0/4837
OSDEBATE   0/18996
PASCAL   0/490
PERL   0/457
PHP   0/45
POINTS   0/405
POLITICS   0/29554
POL_INC   0/14731
PSION   103
R20_ADMIN   1134
R20_AMATORRADIO   0/2
R20_BEST_OF_FIDONET   17
R20_CHAT   0/899
R20_DEPP   0/3
R20_DEV   400
R20_ECHO2   1992
R20_ECHOPRES   0/35
R20_ESTAT   0/719
R20_FIDONETPROG...
...RAM.MYPOINT
  0/2
R20_FIDONETPROGRAM   0/22
R20_FIDONET   0/248
R20_FILEFIND   0/24
R20_FILEFOUND   0/22
R20_HIFI   0/3
R20_INFO2   3886
R20_INTERNET   0/12940
R20_INTRESSE   0/60
R20_INTR_KOM   0/99
R20_KANDIDAT.CHAT   42
R20_KANDIDAT   28
R20_KOM_DEV   112
R20_KONTROLL   0/13380
R20_KORSET   0/18
R20_LOKALTRAFIK   0/24
R20_MODERATOR   0/1852
R20_NC   76
R20_NET200   245
R20_NETWORK.OTH...
...ERNETS
  0/13
R20_OPERATIVSYS...
...TEM.LINUX
  0/45
R20_PROGRAMVAROR   0/1
R20_REC2NEC   534
R20_SFOSM   0/341
R20_SF   0/108
R20_SPRAK.ENGLISH   0/1
R20_SQUISH   107
R20_TEST   2
R20_WORST_OF_FIDONET   21
RAR   0/9
RA_MULTI   106
RA_UTIL   0/162
REGCON.EUR   0/2072
REGCON   0/13
SCIENCE   0/1206
SF   0/239
SHAREWARE_SUPPORT   0/5146
SHAREWRE   0/14
SIMPSONS   0/169
STATS_OLD1   0/2539.065
STATS_OLD2   0/2530
STATS_OLD3   0/2395.095
STATS_OLD4   0/1692.25
SURVIVOR   0/495
SYSOPS_CORNER   0/3
SYSOP   0/84
TAGLINES   0/112
TEAMOS2   0/4530
TECH   0/2617
TEST.444   0/105
TRAPDOOR   0/19
TREK   0/755
TUB   0/290
UFO   0/40
UNIX   0/1316
USA_EURLINK   0/102
USR_MODEMS   0/1
VATICAN   0/2740
VIETNAM_VETS   0/14
VIRUS   0/378
VIRUS_INFO   0/201
VISUAL_BASIC   0/473
WHITEHOUSE   0/5187
WIN2000   0/101
WIN32   0/30
WIN95   0/4291
WIN95_OLD1   0/70272
WINDOWS   0/1517
WWB_SYSOP   0/419
WWB_TECH   0/810
ZCC-PUBLIC   0/1
ZEC   4

 
4DOS   0/134
ABORTION   0/7
ALASKA_CHAT   0/506
ALLFIX_FILE   0/1313
ALLFIX_FILE_OLD1   0/7997
ALT_DOS   0/152
AMATEUR_RADIO   0/1039
AMIGASALE   0/14
AMIGA   0/331
AMIGA_INT   0/1
AMIGA_PROG   0/20
AMIGA_SYSOP   0/26
ANIME   0/15
ARGUS   0/924
ASCII_ART   0/340
ASIAN_LINK   0/651
ASTRONOMY   0/417
AUDIO   0/92
AUTOMOBILE_RACING   0/105
BABYLON5   0/17862
BAG   135
BATPOWER   0/361
BBBS.ENGLISH   0/382
BBSLAW   0/109
BBS_ADS   0/5290
BBS_INTERNET   0/507
BIBLE   0/3563
BINKD   0/1119
BINKLEY   0/215
BLUEWAVE   0/2173
CABLE_MODEMS   0/25
CBM   0/46
CDRECORD   0/66
CDROM   0/20
CLASSIC_COMPUTER   0/378
COMICS   0/15
CONSPRCY   0/899
COOKING   42875
COOKING_OLD1   0/24719
COOKING_OLD2   0/40862
COOKING_OLD3   0/37489
COOKING_OLD4   0/35496
COOKING_OLD5   9370
C_ECHO   0/189
C_PLUSPLUS   0/31
DIRTY_DOZEN   0/201
DOORGAMES   0/2397
DOS_INTERNET   0/196
duplikat   6103
ECHOLIST   0/18295
EC_SUPPORT   0/318
ELECTRONICS   0/359
ELEKTRONIK.GER   1534
ENET.LINGUISTIC   0/13
ENET.POLITICS   0/4
ENET.SOFT   0/11701
ENET.SYSOP   34573
ENET.TALKS   0/32
ENGLISH_TUTOR   0/2000
EVOLUTION   0/1335
FDECHO   0/217
FDN_ANNOUNCE   0/7068
FIDONEWS   25344
FIDONEWS_OLD1   0/49742
FIDONEWS_OLD2   0/35949
FIDONEWS_OLD3   0/30874
FIDONEWS_OLD4   0/37224
FIDO_SYSOP   12979
FIDO_UTIL   0/180
FILEFIND   0/209
FILEGATE   0/212
Möte HAM, 16975 texter
 lista första sista föregående nästa
Text 2041, 815 rader
Skriven 2008-01-17 22:00:22 av Amsat List (1:323/120.0)
Ärende: [keps]  orb08017.amsa
=============================
[keps]  orb08017.amsa

Return-Path: <keps-bounces@amsat.org>
X-Rcpt: craig.healy@chowda.com
X-UIDL: 1200625111.7195

SB KEPS @ AMSAT  $ORB08017.O
Orbital Elements  08017.OSCAR

HR AMSAT ORBITAL ELEMENTS FOR OSCAR SATELLITES
FROM WA5QGD FORT WORTH,TX January 17, 2008
Send Subscribe/unsubscribe to KEPS at 
http://www.amsat.org/mailman/listinfo/keps
BID: ORB08017.O
TO ALL RADIO AMATEURS BT

Satellite: AO-07
Catalog number: 07530
Epoch time:      08017.18247696
Element set:      79
Inclination:      101.4876 deg
RA of node:       053.6554 deg
Eccentricity:    0.0012010
Arg of perigee:   197.9993 deg
Mean anomaly:     162.0652 deg
Mean motion:   12.53573355 rev/day
Decay rate:       -2.7e-07 rev/day^2
Epoch rev:           51793
Checksum:              310

Satellite: AO-10
Catalog number: 14129
Epoch time:      08016.75822671
Element set:     462
Inclination:      025.9390 deg
RA of node:       235.2993 deg
Eccentricity:    0.6038443
Arg of perigee:   090.6802 deg
Mean anomaly:     334.3615 deg
Mean motion:   02.05869298 rev/day
Decay rate:       2.20e-06 rev/day^2
Epoch rev:           18496
Checksum:              313

Satellite: UO-11
Catalog number: 14781
Epoch time:      08017.23145762
Element set:     572
Inclination:      098.1732 deg
RA of node:       048.8487 deg
Eccentricity:    0.0008780
Arg of perigee:   196.7614 deg
Mean anomaly:     163.3310 deg
Mean motion:   14.79609228 rev/day
Decay rate:      -2.48e-06 rev/day^2
Epoch rev:           28138
Checksum:              321

Satellite: RS-15
Catalog number: 23439
Epoch time:      08015.48828039
Element set:    0146
Inclination:      064.8189 deg
RA of node:       023.5918 deg
Eccentricity:    0.0151917
Arg of perigee:   152.0576 deg
Mean anomaly:     208.8607 deg
Mean motion:   11.27551839 rev/day
Decay rate:       -3.9e-07 rev/day^2
Epoch rev:           53763
Checksum:              329

Satellite: FO-29
Catalog number: 24278
Epoch time:      08017.22246399
Element set:     683
Inclination:      098.5796 deg
RA of node:       313.4161 deg
Eccentricity:    0.0349784
Arg of perigee:   248.8997 deg
Mean anomaly:     107.4427 deg
Mean motion:   13.52935236 rev/day
Decay rate:        6.5e-07 rev/day^2
Epoch rev:           56384
Checksum:              361

Satellite: SO-33
Catalog number: 25509
Epoch time:      08017.57974147
Element set:     112
Inclination:      031.4287 deg
RA of node:       093.5664 deg
Eccentricity:    0.0355053
Arg of perigee:   141.7835 deg
Mean anomaly:     220.8522 deg
Mean motion:   14.28192039 rev/day
Decay rate:       1.74e-06 rev/day^2
Epoch rev:           48192
Checksum:              305

Satellite: AO-40
Catalog number: 26609
Epoch time:      08015.93475078
Element set:     993
Inclination:      007.3058 deg
RA of node:       102.2238 deg
Eccentricity:    0.7929334
Arg of perigee:   042.2401 deg
Mean anomaly:     356.4909 deg
Mean motion:   01.25582493 rev/day
Decay rate:      -2.89e-06 rev/day^2
Epoch rev:            3311
Checksum:              309

Satellite: VO-52
Catalog number: 28650
Epoch time:      08017.02901249
Element set:     831
Inclination:      097.8087 deg
RA of node:       087.6867 deg
Eccentricity:    0.0026106
Arg of perigee:   277.5671 deg
Mean anomaly:     082.2615 deg
Mean motion:   14.81410662 rev/day
Decay rate:       3.33e-06 rev/day^2
Epoch rev:           14607
Checksum:              308

Satellite: PO-63
Catalog number: 29712
Epoch time:      08017.24842568
Element set:     104
Inclination:      097.8974 deg
RA of node:       078.1647 deg
Eccentricity:    0.0014752
Arg of perigee:   151.1544 deg
Mean anomaly:     209.0488 deg
Mean motion:   14.79988020 rev/day
Decay rate:       6.52e-06 rev/day^2
Epoch rev:            5499
Checksum:              336

/EX
SB KEPS @ AMSAT  $ORB08017.D
Orbital Elements  08017.MICROS

HR AMSAT ORBITAL ELEMENTS FOR THE MICROSATS
FROM WA5QGD FORT WORTH,TX January 17, 2008
Send Subscribe/unsubscribe to KEPS at 
http://www.amsat.org/mailman/listinfo/keps
BID: ORB08017.D
TO ALL RADIO AMATEURS BT

Satellite: AO-16
Catalog number: 20439
Epoch time:      08016.51607680
Element set:     228
Inclination:      098.2149 deg
RA of node:       004.5126 deg
Eccentricity:    0.0009961
Arg of perigee:   273.1815 deg
Mean anomaly:     086.8240 deg
Mean motion:   14.31781683 rev/day
Decay rate:        1.3e-07 rev/day^2
Epoch rev:           93907
Checksum:              301

Satellite: LO-19
Catalog number: 20442
Epoch time:      08017.42722055
Element set:     152
Inclination:      098.1913 deg
RA of node:       014.3285 deg
Eccentricity:    0.0010947
Arg of perigee:   266.2587 deg
Mean anomaly:     093.7371 deg
Mean motion:   14.32021364 rev/day
Decay rate:        7.4e-07 rev/day^2
Epoch rev:           93935
Checksum:              291

Satellite: AO-27
Catalog number: 22825
Epoch time:      08015.39381716
Element set:    0875
Inclination:      098.3640 deg
RA of node:       341.3613 deg
Eccentricity:    0.0008312
Arg of perigee:   002.0665 deg
Mean anomaly:     358.0542 deg
Mean motion:   14.29227221 rev/day
Decay rate:      -1.26e-06 rev/day^2
Epoch rev:           74580
Checksum:              287

Satellite: IO-26
Catalog number: 22826
Epoch time:      08017.08443362
Element set:     577
Inclination:      098.3565 deg
RA of node:       343.9634 deg
Eccentricity:    0.0008985
Arg of perigee:   352.9424 deg
Mean anomaly:     007.1640 deg
Mean motion:   14.29475418 rev/day
Decay rate:       -1.1e-07 rev/day^2
Epoch rev:           74613
Checksum:              318

